OK,55,72,979,55,2014-10-01T01:40:00,0,28072749,193322
OK,55,72,979,55,2014-10-01T01:45:00,0,28073196,193322
OK,55,72,979,55,2014-10-01T01:50:00,0,28073644,193322
OK,55,72,979,55,2014-10-01T01:55:00,0,28073962,193322
OK,55,72,979,55,2014-10-01T02:00:00,0,28074411,193322
OK,55,72,979,55,2014-10-01T02:05:00,0,28074851,193322
OK,55,72,979,55,2014-10-01T02:10:00,0,28075300,193322
OK,55,72,979,55,2014-10-01T02:15:00,0,28075749,193322
OK,55,72,979,55,2014-10-01T02:20:00,0,28076132,193322
OK,55,72,979,55,2014-10-01T02:25:00,0,28076581,193322
OK,53,75,979,53,2014-10-01T02:30:00,2,28077030,193322
OK,65,61,979,65,2014-10-01T02:35:00,2,28077479,193322
OK,59,67,979,59,2014-10-01T02:40:00,3,28077882,193322
OK,55,72,979,55,2014-10-01T02:45:00,2,28078331,193322
OK,55,72,979,55,2014-10-01T02:50:00,0,28078776,193322
OK,63,63,979,63,2014-10-01T02:55:00,3,28079225,193322
OK,58,68,979,58,2014-10-01T03:00:00,3,28079667,193322
OK,68,58,979,68,2014-10-01T03:05:00,2,28080116,193322
OK,58,68,979,58,2014-10-01T03:10:00,3,28080450,193322
OK,51,78,979,51,2014-10-01T03:15:00,6,28080899,193322
OK,50,79,979,50,2014-10-01T03:20:00,7,28081348,193322
OK,65,61,979,65,2014-10-01T03:25:00,2,28081795,193322
OK,46,86,979,46,2014-10-01T03:30:00,3,28082244,193322
OK,70,57,979,70,2014-10-01T03:35:00,6,28082677,193322
OK,61,65,979,61,2014-10-01T03:40:00,5,28083109,193322
OK,61,65,979,61,2014-10-01T03:45:00,5,28083558,193322
OK,68,58,979,68,2014-10-01T03:50:00,4,28084007,193322
OK,61,65,979,61,2014-10-01T03:55:00,9,28084448,193322
OK,59,67,979,59,2014-10-01T04:00:00,8,28084873,193322
OK,57,70,979,57,2014-10-01T04:05:00,6,28085322,193322
OK,57,70,979,57,2014-10-01T04:10:00,14,28085767,193322
OK,58,68,979,58,2014-10-01T04:15:00,13,28086216,193322
OK,58,68,979,58,2014-10-01T04:20:00,9,28086658,193322
OK,64,62,979,64,2014-10-01T04:25:00,7,28087107,193322
OK,73,54,979,73,2014-10-01T04:30:00,13,28087552,193322
OK,72,55,979,72,2014-10-01T04:35:00,14,28088001,193322
OK,74,54,979,74,2014-10-01T04:40:00,24,28088425,193322
OK,75,53,979,75,2014-10-01T04:45:00,24,28088874,193322
OK,68,58,979,68,2014-10-01T04:50:00,25,28089304,193322
OK,68,58,979,68,2014-10-01T04:55:00,19,28089753,193322
OK,69,57,979,69,2014-10-01T05:00:00,11,28090202,193322
OK,69,57,979,69,2014-10-01T05:05:00,7,28090546,193322
OK,83,48,979,83,2014-10-01T05:10:00,7,28090995,193322
OK,74,54,979,74,2014-10-01T05:15:00,18,28091444,193322
OK,101,39,979,101,2014-10-01T05:20:00,28,28091861,193322
OK,109,36,979,109,2014-10-01T05:25:00,25,28092310,193322
OK,101,39,979,101,2014-10-01T05:30:00,24,28092754,193322
OK,117,34,979,117,2014-10-01T05:35:00,29,28093195,193322
OK,119,33,979,119,2014-10-01T05:40:00,22,28093626,193322
OK,110,36,979,110,2014-10-01T05:45:00,17,28094075,193322
OK,109,36,979,109,2014-10-01T05:50:00,14,28094486,193322
OK,128,31,979,128,2014-10-01T05:55:00,21,28094931,193322
OK,142,28,979,142,2014-10-01T06:00:00,30,28095378,193322
OK,133,30,979,133,2014-10-01T06:05:00,25,28095827,193322
OK,117,34,979,117,2014-10-01T06:10:00,17,28096240,193322
OK,109,36,979,109,2014-10-01T06:15:00,20,28096689,193322
OK,99,40,979,99,2014-10-01T06:20:00,22,28097123,193322
OK,96,41,979,96,2014-10-01T06:25:00,20,28097572,193322
OK,90,44,979,90,2014-10-01T06:30:00,21,28098021,193322
OK,68,58,979,68,2014-10-01T06:35:00,11,28098458,193322
OK,69,57,979,69,2014-10-01T06:40:00,14,28098902,193322
OK,69,57,979,69,2014-10-01T06:45:00,23,28099350,193322
OK,120,33,979,120,2014-10-01T06:50:00,30,28099693,193322
OK,128,31,979,128,2014-10-01T06:55:00,37,28100142,193322
OK,111,36,979,111,2014-10-01T07:00:00,34,28100449,193322
OK,92,43,979,92,2014-10-01T07:05:00,26,28100898,193322
OK,70,57,979,70,2014-10-01T07:10:00,16,28101269,193322
OK,82,48,979,82,2014-10-01T07:15:00,15,28101718,193322
OK,82,48,979,82,2014-10-01T07:20:00,15,28102154,193322
OK,70,57,979,70,2014-10-01T07:25:00,12,28102603,193322
OK,69,57,979,69,2014-10-01T07:30:00,17,28103031,193322
OK,69,57,979,69,2014-10-01T07:35:00,15,28103477,193322
OK,86,46,979,86,2014-10-01T07:40:00,13,28103922,193322
OK,84,47,979,84,2014-10-01T07:45:00,17,28104367,193322
OK,78,51,979,78,2014-10-01T07:50:00,16,28104808,193322
OK,74,54,979,74,2014-10-01T07:55:00,10,28105253,193322
OK,83,48,979,83,2014-10-01T08:00:00,16,28105693,193322
OK,87,45,979,87,2014-10-01T08:05:00,21,28106142,193322
OK,86,46,979,86,2014-10-01T08:10:00,15,28106579,193322
OK,71,56,979,71,2014-10-01T08:15:00,17,28106985,193322
OK,80,49,979,80,2014-10-01T08:20:00,16,28107417,193322
OK,88,45,979,88,2014-10-01T08:25:00,18,28107866,193322
OK,87,45,979,87,2014-10-01T08:30:00,12,28108305,193322
OK,80,49,979,80,2014-10-01T08:35:00,9,28108754,193322
OK,79,50,979,79,2014-10-01T08:40:00,11,28109182,193322
OK,65,61,979,65,2014-10-01T08:45:00,10,28109631,193322
OK,66,60,979,66,2014-10-01T08:50:00,12,28109974,193322
OK,78,51,979,78,2014-10-01T08:55:00,9,28110423,193322
OK,94,42,979,94,2014-10-01T09:00:00,10,28110846,193322
OK,80,49,979,80,2014-10-01T09:05:00,10,28111295,193322
OK,74,54,979,74,2014-10-01T09:10:00,8,28111724,193322
OK,77,51,979,77,2014-10-01T09:15:00,10,28112173,193322
OK,79,50,979,79,2014-10-01T09:20:00,13,28112514,193322
OK,82,48,979,82,2014-10-01T09:25:00,17,28112963,193322
OK,74,54,979,74,2014-10-01T09:30:00,17,28113387,193322
OK,78,51,979,78,2014-10-01T09:35:00,22,28113836,193322
OK,80,49,979,80,2014-10-01T09:40:00,17,28114268,193322
OK,75,53,979,75,2014-10-01T09:45:00,13,28114717,193322
OK,80,49,979,80,2014-10-01T09:50:00,18,28115071,193322
OK,96,41,979,96,2014-10-01T10:00:00,13,28115932,193322
OK,85,47,979,85,2014-10-01T10:05:00,12,28116381,193322
OK,85,47,979,85,2014-10-01T10:10:00,15,28116789,193322
OK,79,50,979,79,2014-10-01T10:15:00,11,28117238,193322
OK,75,53,979,75,2014-10-01T10:20:00,8,28117663,193322
OK,71,56,979,71,2014-10-01T10:25:00,5,28118112,193322
OK,74,54,979,74,2014-10-01T10:30:00,13,28118557,193322
OK,87,45,979,87,2014-10-01T10:35:00,18,28119004,193322
OK,89,44,979,89,2014-10-01T10:40:00,14,28119448,193322
OK,92,43,979,92,2014-10-01T10:45:00,15,28119896,193322
OK,92,43,979,92,2014-10-01T10:50:00,17,28120344,193322
OK,78,51,979,78,2014-10-01T10:55:00,15,28120793,193322
OK,70,57,979,70,2014-10-01T11:00:00,13,28121176,193322
OK,78,51,979,78,2014-10-01T11:05:00,10,28121625,193322
OK,93,43,979,93,2014-10-01T11:10:00,17,28122063,193322
OK,89,44,979,89,2014-10-01T11:15:00,15,28122512,193322
OK,64,62,979,64,2014-10-01T11:20:00,10,28122953,193322
OK,75,53,979,75,2014-10-01T11:25:00,13,28123402,193322
OK,109,36,979,109,2014-10-01T11:30:00,10,28123834,193322
OK,84,47,979,84,2014-10-01T11:35:00,8,28124283,193322
OK,69,57,979,69,2014-10-01T11:40:00,13,28124685,193322
OK,73,54,979,73,2014-10-01T11:45:00,15,28125134,193322
OK,85,47,979,85,2014-10-01T11:50:00,12,28125563,193322
OK,85,47,979,85,2014-10-01T11:55:00,10,28126012,193322
OK,62,64,979,62,2014-10-01T12:00:00,9,28126364,193322
OK,94,42,979,94,2014-10-01T12:10:00,12,28127262,193322
OK,67,59,979,67,2014-10-01T12:15:00,6,28127711,193322
OK,67,59,979,67,2014-10-01T12:20:00,11,28128139,193322
OK,70,57,979,70,2014-10-01T12:25:00,12,28128588,193322
OK,83,48,979,83,2014-10-01T12:30:00,7,28129023,193322
OK,99,40,979,99,2014-10-01T12:35:00,10,28129472,193322
OK,93,43,979,93,2014-10-01T12:40:00,14,28129906,193322
OK,83,48,979,83,2014-10-01T12:45:00,16,28130355,193322
OK,93,43,979,93,2014-10-01T12:50:00,20,28130783,193322
OK,98,40,979,98,2014-10-01T12:55:00,12,28131232,193322
OK,93,43,979,93,2014-10-01T13:00:00,8,28131669,193322
OK,64,62,979,64,2014-10-01T13:05:00,7,28132118,193322
OK,64,62,979,64,2014-10-01T13:10:00,11,28132556,193322
OK,67,59,979,67,2014-10-01T13:15:00,12,28133003,193322
OK,80,49,979,80,2014-10-01T13:20:00,11,28133441,193322
OK,86,46,979,86,2014-10-01T13:25:00,11,28133890,193322
OK,81,49,979,81,2014-10-01T13:30:00,8,28134329,193322
OK,106,37,979,106,2014-10-01T13:35:00,16,28134778,193322
OK,105,38,979,105,2014-10-01T13:40:00,17,28135197,193322
OK,88,45,979,88,2014-10-01T13:45:00,8,28135646,193322
OK,101,39,979,101,2014-10-01T13:50:00,9,28136083,193322
OK,136,29,979,136,2014-10-01T13:55:00,14,28136532,193322
OK,158,25,979,158,2014-10-01T14:00:00,10,28136972,193322
OK,87,45,979,87,2014-10-01T14:05:00,8,28137421,193322
OK,88,45,979,88,2014-10-01T14:10:00,14,28137855,193322
OK,108,37,979,108,2014-10-01T14:15:00,12,28138304,193322
OK,121,33,979,121,2014-10-01T14:20:00,18,28138732,193322
OK,120,33,979,120,2014-10-01T14:25:00,17,28139181,193322
OK,114,35,979,114,2014-10-01T14:30:00,13,28139592,193322
OK,126,31,979,126,2014-10-01T14:35:00,15,28140041,193322
OK,133,30,979,133,2014-10-01T14:40:00,11,28140483,193322
OK,126,31,979,126,2014-10-01T14:45:00,9,28140932,193322
OK,125,31,979,125,2014-10-01T14:50:00,12,28141358,193322
OK,143,27,979,143,2014-10-01T14:55:00,11,28141807,193322
OK,195,20,979,195,2014-10-01T15:00:00,13,28142235,193322
OK,192,20,979,192,2014-10-01T15:05:00,10,28142684,193322
OK,189,21,979,189,2014-10-01T15:10:00,9,28143111,193322
OK,137,29,979,137,2014-10-01T15:15:00,18,28143560,193322
OK,96,41,979,96,2014-10-01T15:20:00,14,28144008,193322
OK,79,50,979,79,2014-10-01T15:25:00,7,28144457,193322
OK,69,57,979,69,2014-10-01T15:30:00,12,28144878,193322
OK,84,47,979,84,2014-10-01T15:35:00,13,28145292,193322
OK,81,49,979,81,2014-10-01T15:40:00,8,28145741,193322
OK,107,37,979,107,2014-10-01T15:45:00,7,28146190,193322
OK,109,36,979,109,2014-10-01T15:50:00,8,28146639,193322
OK,100,39,979,100,2014-10-01T15:55:00,2,28147047,193322
OK,91,43,979,91,2014-10-01T16:00:00,2,28147491,193322
OK,82,48,979,82,2014-10-01T16:05:00,4,28147940,193322
OK,70,57,979,70,2014-10-01T16:10:00,5,28148341,193322
OK,73,54,979,73,2014-10-01T16:15:00,2,28148790,193322
OK,92,43,979,92,2014-10-01T16:20:00,12,28149229,193322
OK,80,49,979,80,2014-10-01T16:25:00,10,28149678,193322
OK,66,60,979,66,2014-10-01T16:30:00,7,28150104,193322
OK,64,62,979,64,2014-10-01T16:35:00,12,28150553,193322
OK,63,63,979,63,2014-10-01T16:40:00,8,28150971,193322
OK,57,70,979,57,2014-10-01T16:45:00,3,28151420,193322
OK,65,61,979,65,2014-10-01T16:50:00,4,28151869,193322
OK,78,51,979,78,2014-10-01T17:00:00,4,28152318,193322
OK,66,60,979,66,2014-10-01T17:05:00,2,28152764,193322
OK,96,41,979,96,2014-10-01T17:10:00,1,28153211,193322
OK,70,57,979,70,2014-10-01T17:15:00,4,28153660,193322
OK,64,62,979,64,2014-10-01T17:20:00,11,28154070,193322
OK,64,62,979,64,2014-10-01T17:25:00,12,28154519,193322
OK,62,64,979,62,2014-10-01T17:30:00,7,28154961,193322
OK,62,64,979,62,2014-10-01T17:35:00,3,28155409,193322
OK,92,43,979,92,2014-10-01T17:40:00,1,28155827,193322
OK,92,43,979,92,2014-10-01T17:45:00,0,28156276,193322
OK,83,48,979,83,2014-10-01T17:50:00,1,28156724,193322
OK,67,59,979,67,2014-10-01T17:55:00,3,28157163,193322
OK,61,65,979,61,2014-10-01T18:00:00,2,28157593,193322
OK,63,63,979,63,2014-10-01T18:05:00,4,28158041,193322
OK,63,63,979,63,2014-10-01T18:10:00,4,28158485,193322
OK,69,57,979,69,2014-10-01T18:15:00,3,28158931,193322
OK,61,65,979,61,2014-10-01T18:20:00,6,28159377,193322
OK,59,67,979,59,2014-10-01T18:25:00,4,28159712,193322
OK,73,54,979,73,2014-10-01T18:30:00,1,28160161,193322
OK,58,68,979,58,2014-10-01T18:35:00,2,28160610,193322
OK,64,62,979,64,2014-10-01T18:40:00,4,28161048,193322
OK,67,59,979,67,2014-10-01T18:45:00,2,28161497,193322
OK,67,59,979,67,2014-10-01T18:50:00,0,28161914,193322
OK,67,59,979,67,2014-10-01T18:55:00,0,28162363,193322
OK,74,54,979,74,2014-10-01T19:00:00,1,28162757,193322
OK,74,54,979,74,2014-10-01T19:05:00,0,28163196,193322
OK,76,52,979,76,2014-10-01T19:10:00,1,28163644,193322
OK,73,54,979,73,2014-10-01T19:15:00,4,28164093,193322
OK,64,62,979,64,2014-10-01T19:20:00,4,28164524,193322
OK,60,66,979,60,2014-10-01T19:25:00,2,28164973,193322
OK,63,63,979,63,2014-10-01T19:30:00,2,28165398,193322
OK,57,70,979,57,2014-10-01T19:35:00,1,28165846,193322
OK,67,59,979,67,2014-10-01T19:40:00,3,28166287,193322
OK,61,65,979,61,2014-10-01T19:45:00,5,28166649,193322
OK,70,57,979,70,2014-10-01T19:50:00,5,28167098,193322
OK,60,66,979,60,2014-10-01T19:55:00,4,28167527,193322
OK,63,63,979,63,2014-10-01T20:00:00,4,28167960,193322
OK,69,57,979,69,2014-10-01T20:05:00,1,28168409,193322
OK,58,68,979,58,2014-10-01T20:10:00,4,28168854,193322
OK,59,67,979,59,2014-10-01T20:15:00,5,28169303,193322
OK,70,57,979,70,2014-10-01T20:20:00,2,28169751,193322
OK,67,59,979,67,2014-10-01T20:25:00,2,28170177,193322
OK,60,66,979,60,2014-10-01T20:30:00,1,28170622,193322
OK,71,56,979,71,2014-10-01T20:35:00,1,28171070,193322
OK,71,56,979,71,2014-10-01T20:40:00,1,28171507,193322
OK,71,56,979,71,2014-10-01T20:45:00,0,28171953,193322
OK,71,56,979,71,2014-10-01T20:50:00,0,28172401,193322
OK,71,56,979,71,2014-10-01T20:55:00,0,28172847,193322
OK,59,67,979,59,2014-10-01T21:00:00,3,28173293,193322
OK,55,72,979,55,2014-10-01T21:05:00,3,28173742,193322
OK,75,53,979,75,2014-10-01T21:10:00,2,28174183,193322
OK,63,63,979,63,2014-10-01T21:15:00,1,28174632,193322
OK,64,62,979,64,2014-10-01T21:20:00,2,28175058,193322
OK,60,66,979,60,2014-10-01T21:25:00,3,28175454,193322
OK,60,66,979,60,2014-10-01T21:30:00,1,28175903,193322
OK,64,62,979,64,2014-10-01T21:35:00,1,28176352,193322
OK,55,72,979,55,2014-10-01T21:40:00,1,28176801,193322
OK,55,72,979,55,2014-10-01T21:45:00,0,28177157,193322
OK,55,72,979,55,2014-10-01T21:50:00,0,28177597,193322
OK,55,72,979,55,2014-10-01T21:55:00,0,28178043,193322
OK,55,72,979,55,2014-10-01T22:00:00,0,28178492,193322
OK,55,72,979,55,2014-10-01T22:05:00,0,28178939,193322
OK,55,72,979,55,2014-10-01T22:10:00,0,28179373,193322
OK,44,90,979,44,2014-10-01T22:15:00,1,28179816,193322
OK,48,83,979,48,2014-10-01T22:20:00,4,28180263,193322
OK,51,78,979,51,2014-10-01T22:25:00,2,28180661,193322
OK,51,78,979,51,2014-10-01T22:30:00,0,28181110,193322
OK,51,78,979,51,2014-10-01T22:35:00,0,28181534,193322
OK,51,78,979,51,2014-10-01T22:40:00,0,28181982,193322
OK,51,78,979,51,2014-10-01T22:45:00,0,28182429,193322
OK,51,78,979,51,2014-10-01T22:50:00,0,28182878,193322
OK,51,78,979,51,2014-10-01T22:55:00,0,28183295,193322
OK,63,63,979,63,2014-10-01T23:00:00,1,28183728,193322
OK,63,63,979,63,2014-10-01T23:05:00,0,28184173,193322
OK,62,64,979,62,2014-10-01T23:10:00,1,28184622,193322
OK,58,68,979,58,2014-10-01T23:15:00,2,28185057,193322
OK,54,74,979,54,2014-10-01T23:20:00,0,28185505,193322
OK,54,74,979,54,2014-10-01T23:25:00,0,28185936,193322
OK,54,74,979,54,2014-10-01T23:30:00,0,28186328,193322
OK,54,74,979,54,2014-10-01T23:40:00,0,28187175,193322
OK,57,70,979,57,2014-10-01T23:55:00,1,28188507,193322
OK,62,64,979,62,2014-10-02T00:05:00,0,28189392,193322
OK,62,64,979,62,2014-10-02T00:10:00,0,28189814,193322
OK,62,64,979,62,2014-10-02T00:15:00,0,28190263,193322
OK,62,64,979,62,2014-10-02T00:20:00,0,28190616,193322
OK,62,64,979,62,2014-10-02T00:30:00,0,28191514,193322
OK,62,64,979,62,2014-10-02T00:35:00,0,28191820,193322
OK,50,79,979,50,2014-10-02T00:40:00,1,28192269,193322
OK,50,79,979,50,2014-10-02T00:45:00,0,28192702,193322
OK,50,79,979,50,2014-10-02T00:50:00,0,28193146,193322
OK,50,79,979,50,2014-10-02T00:55:00,0,28193513,193322
OK,50,79,979,50,2014-10-02T01:05:00,0,28194411,193322
OK,50,79,979,50,2014-10-02T01:10:00,0,28194860,193322
OK,50,79,979,50,2014-10-02T01:15:00,0,28195096,193322
OK,50,79,979,50,2014-10-02T01:25:00,0,28195994,193322
OK,50,79,979,50,2014-10-02T01:30:00,0,28196279,193322
OK,50,79,979,50,2014-10-02T01:35:00,0,28196727,193322
OK,50,79,979,50,2014-10-02T01:40:00,0,28197150,193322
OK,50,79,979,50,2014-10-02T01:45:00,0,28197599,193322
OK,50,79,979,50,2014-10-02T01:50:00,0,28198047,193322
OK,50,79,979,50,2014-10-02T01:55:00,0,28198495,193322
OK,50,79,979,50,2014-10-02T02:00:00,0,28198944,193322
OK,54,74,979,54,2014-10-02T02:05:00,0,28199316,193322
OK,54,74,979,54,2014-10-02T02:10:00,0,28199758,193322
OK,72,55,979,72,2014-10-02T02:15:00,1,28200200,193322
OK,72,55,979,72,2014-10-02T02:20:00,0,28200643,193322
OK,72,55,979,72,2014-10-02T02:25:00,0,28201092,193322
OK,56,71,979,56,2014-10-02T02:30:00,1,28201523,193322
OK,56,71,979,56,2014-10-02T02:45:00,0,28202421,193322
OK,53,75,979,53,2014-10-02T02:50:00,3,28202863,193322
OK,53,75,979,53,2014-10-02T02:55:00,0,28203311,193322
OK,53,75,979,53,2014-10-02T03:00:00,0,28203746,193322
OK,53,75,979,53,2014-10-02T03:10:00,0,28204195,193322
OK,53,75,979,53,2014-10-02T03:25:00,1,28204644,193322
OK,53,75,979,53,2014-10-02T03:30:00,0,28205093,193322
OK,65,61,979,65,2014-10-02T03:35:00,2,28205521,193322
OK,69,57,979,69,2014-10-02T03:40:00,0,28205968,193322
OK,59,67,979,59,2014-10-02T03:45:00,4,28206351,193322
OK,60,66,979,60,2014-10-02T03:55:00,0,28207249,193322
OK,61,65,979,61,2014-10-02T04:00:00,3,28207669,193322
OK,61,65,979,61,2014-10-02T04:05:00,1,28208117,193322
OK,68,58,979,68,2014-10-02T04:10:00,4,28208544,193322
OK,58,68,979,58,2014-10-02T04:15:00,0,28208993,193322
OK,65,61,979,65,2014-10-02T04:20:00,7,28209431,193322
OK,59,67,979,59,2014-10-02T04:25:00,0,28209880,193322
OK,63,63,979,63,2014-10-02T04:30:00,9,28210303,193322
OK,64,62,979,64,2014-10-02T04:35:00,3,28210752,193322
OK,85,47,979,85,2014-10-02T04:40:00,11,28211177,193322
OK,67,59,979,67,2014-10-02T04:45:00,3,28211621,193322
OK,60,66,979,60,2014-10-02T04:50:00,0,28211999,193322
OK,84,47,979,84,2014-10-02T04:55:00,11,28212448,193322
OK,84,47,979,84,2014-10-02T05:00:00,7,28212877,193322
OK,65,61,979,65,2014-10-02T05:05:00,10,28213326,193322
OK,81,49,979,81,2014-10-02T05:10:00,1,28213764,193322
OK,84,47,979,84,2014-10-02T05:15:00,14,28214213,193322
OK,88,45,979,88,2014-10-02T05:20:00,3,28214626,193322
OK,89,44,979,89,2014-10-02T05:25:00,12,28215075,193322
OK,109,36,979,109,2014-10-02T05:30:00,1,28215491,193322
OK,109,36,979,109,2014-10-02T05:35:00,0,28215940,193322
OK,112,35,979,112,2014-10-02T05:40:00,21,28216279,193322
OK,127,31,979,127,2014-10-02T05:45:00,6,28216719,193322
OK,127,31,979,127,2014-10-02T05:50:00,0,28217166,193322
OK,130,30,979,130,2014-10-02T05:55:00,28,28217615,193322
OK,119,33,979,119,2014-10-02T06:00:00,20,28218054,193322
OK,99,40,979,99,2014-10-02T06:05:00,18,28218503,193322
OK,96,41,979,96,2014-10-02T06:10:00,7,28218923,193322
OK,139,28,979,139,2014-10-02T06:15:00,23,28219372,193322
OK,114,35,979,114,2014-10-02T06:20:00,26,28219745,193322
OK,90,44,979,90,2014-10-02T06:25:00,23,28220194,193322
OK,77,51,979,77,2014-10-02T06:30:00,20,28220628,193322
OK,98,40,979,98,2014-10-02T06:35:00,27,28221077,193322
OK,100,39,979,100,2014-10-02T06:40:00,25,28221458,193322
OK,93,43,979,93,2014-10-02T06:45:00,17,28221744,193322
OK,88,45,979,88,2014-10-02T07:00:00,24,28222338,193322
OK,87,45,979,87,2014-10-02T07:05:00,22,28222787,193322
OK,70,57,979,70,2014-10-02T07:10:00,11,28223218,193322
OK,68,58,979,68,2014-10-02T07:15:00,3,28223653,193322
OK,83,48,979,83,2014-10-02T07:20:00,0,28224101,193322
OK,74,54,979,74,2014-10-02T07:25:00,15,28224456,193322
OK,80,49,979,80,2014-10-02T07:30:00,4,28224905,193322
OK,96,41,979,96,2014-10-02T07:35:00,18,28225354,193322
OK,96,41,979,96,2014-10-02T07:40:00,12,28225676,193322
OK,73,54,979,73,2014-10-02T07:50:00,19,28226566,193322
OK,82,48,979,82,2014-10-02T07:55:00,13,28227015,193322
OK,117,34,979,117,2014-10-02T08:00:00,3,28227430,193322
OK,62,64,979,62,2014-10-02T08:05:00,10,28227879,193322
OK,61,65,979,61,2014-10-02T08:10:00,5,28228238,193322
OK,73,54,979,73,2014-10-02T08:20:00,4,28229097,193322
OK,61,65,979,61,2014-10-02T08:25:00,9,28229546,193322
OK,54,74,979,54,2014-10-02T08:30:00,1,28229896,193322
OK,73,54,979,73,2014-10-02T08:35:00,13,28230345,193322
OK,92,43,979,92,2014-10-02T08:40:00,3,28230711,193322
OK,56,71,979,56,2014-10-02T08:45:00,0,28231160,193322
OK,124,32,979,124,2014-10-02T08:50:00,4,28231583,193322
OK,205,19,979,205,2014-10-02T08:55:00,1,28232032,193322
OK,60,66,979,60,2014-10-02T09:00:00,13,28232374,193322
OK,80,49,979,80,2014-10-02T09:10:00,0,28232823,193322
OK,93,43,979,93,2014-10-02T09:15:00,9,28233272,193322
OK,67,59,979,67,2014-10-02T09:20:00,3,28233696,193322
OK,96,41,979,96,2014-10-02T09:25:00,11,28234145,193322
OK,105,38,979,105,2014-10-02T09:30:00,1,28234478,193322
OK,88,45,979,88,2014-10-02T09:40:00,2,28235354,193322
OK,68,58,979,68,2014-10-02T09:45:00,12,28235803,193322
OK,88,45,979,88,2014-10-02T09:50:00,4,28236246,193322
OK,132,30,979,132,2014-10-02T09:55:00,7,28236693,193322
OK,132,30,979,132,2014-10-02T10:00:00,0,28237096,193322
OK,132,30,979,132,2014-10-02T10:05:00,0,28237544,193322
OK,82,48,979,82,2014-10-02T10:10:00,9,28237992,193322
OK,74,54,979,74,2014-10-02T10:15:00,4,28238439,193322
OK,81,49,979,81,2014-10-02T10:20:00,8,28238880,193322
OK,82,48,979,82,2014-10-02T10:25:00,6,28239329,193322
OK,57,70,979,57,2014-10-02T10:30:00,0,28239759,193322
OK,84,47,979,84,2014-10-02T10:35:00,11,28240208,193322
OK,78,51,979,78,2014-10-02T10:40:00,4,28240652,193322
OK,76,52,979,76,2014-10-02T10:45:00,10,28241101,193322
OK,84,47,979,84,2014-10-02T10:50:00,7,28241533,193322
OK,65,61,979,65,2014-10-02T10:55:00,7,28241981,193322
OK,55,72,979,55,2014-10-02T11:00:00,3,28242377,193322
OK,63,63,979,63,2014-10-02T11:05:00,0,28242826,193322
OK,87,45,979,87,2014-10-02T11:10:00,14,28243275,193322
OK,83,48,979,83,2014-10-02T11:15:00,13,28243601,193322
OK,76,52,979,76,2014-10-02T11:20:00,8,28244038,193322
OK,90,44,979,90,2014-10-02T11:25:00,3,28244467,193322
OK,90,44,979,90,2014-10-02T11:30:00,0,28244916,193322
OK,111,36,979,111,2014-10-02T11:35:00,9,28245365,193322
OK,82,48,979,82,2014-10-02T11:40:00,5,28245771,193322
OK,84,47,979,84,2014-10-02T11:45:00,0,28246220,193322
OK,97,41,979,97,2014-10-02T11:50:00,15,28246657,193322
OK,106,37,979,106,2014-10-02T11:55:00,11,28247106,193322
OK,106,37,979,106,2014-10-02T12:00:00,13,28247552,193322
OK,106,37,979,106,2014-10-02T12:05:00,7,28247982,193322
OK,86,46,979,86,2014-10-02T12:10:00,0,28248431,193322
OK,90,44,979,90,2014-10-02T12:15:00,12,28248878,193322
OK,115,34,979,115,2014-10-02T12:20:00,5,28249306,193322
OK,91,43,979,91,2014-10-02T12:25:00,7,28249750,193322
OK,80,49,979,80,2014-10-02T12:30:00,4,28250169,193322
OK,95,42,979,95,2014-10-02T12:35:00,13,28250567,193322
OK,88,45,979,88,2014-10-02T13:20:00,11,28251892,193322
OK,126,31,979,126,2014-10-02T13:30:00,13,28252476,193322
OK,103,38,979,103,2014-10-02T13:35:00,6,28252918,193322
OK,134,29,979,134,2014-10-02T13:40:00,0,28253335,193322
OK,105,38,979,105,2014-10-02T13:50:00,9,28254189,193322
OK,96,41,979,96,2014-10-02T13:55:00,8,28254510,193322
OK,85,47,979,85,2014-10-02T14:10:00,6,28255087,193322
OK,84,47,979,84,2014-10-02T14:15:00,15,28255536,193322
OK,70,57,979,70,2014-10-02T14:20:00,16,28255964,193322
OK,57,70,979,57,2014-10-02T14:25:00,1,28256413,193322
OK,109,36,979,109,2014-10-02T14:30:00,14,28256841,193322
OK,119,33,979,119,2014-10-02T14:35:00,13,28257290,193322
OK,115,34,979,115,2014-10-02T14:40:00,8,28257731,193322
OK,94,42,979,94,2014-10-02T14:45:00,11,28258179,193322
OK,105,38,979,105,2014-10-02T14:50:00,8,28258612,193322
OK,126,31,979,126,2014-10-02T14:55:00,5,28259058,193322
OK,131,30,979,131,2014-10-02T15:00:00,0,28259507,193322
OK,108,37,979,108,2014-10-02T15:05:00,10,28259954,193322
OK,112,35,979,112,2014-10-02T15:10:00,18,28260387,193322
OK,78,51,979,78,2014-10-02T15:15:00,16,28260836,193322
OK,62,64,979,62,2014-10-02T15:20:00,6,28261276,193322
OK,110,36,979,110,2014-10-02T15:25:00,9,28261658,193322
OK,69,57,979,69,2014-10-02T15:30:00,1,28262088,193322
OK,76,52,979,76,2014-10-02T15:40:00,7,28262981,193322
OK,64,62,979,64,2014-10-02T15:45:00,11,28263419,193322
OK,66,60,979,66,2014-10-02T15:50:00,4,28263860,193322
OK,60,66,979,60,2014-10-02T15:55:00,0,28264262,193322
OK,68,58,979,68,2014-10-02T16:00:00,12,28264711,193322
OK,69,57,979,69,2014-10-02T16:05:00,7,28265149,193322
OK,53,75,979,53,2014-10-02T16:10:00,0,28265589,193322
OK,53,75,979,53,2014-10-02T16:15:00,0,28265985,193322
OK,67,59,979,67,2014-10-02T16:20:00,5,28266434,193322